VLG3524 LEBL-LEIB

Flight info

Callsign VLG3524
Flight time N/A
Altitude 19000
Route LARPA N859 TOLSO
Aircraft A320/M-SDE3FGHIRWY/LB1

Departure

Time N/A
Airport Josep Tarradellas Barcelona-El Prat Airport (LEBL)

Arrival

Time 2026-05-04 21:25
Airport Ibiza Airport (LEIB)
Time Latitude Longitude Altitude Speed Heading
2026-05-04 21:11 39.14198 1.51405 8563 ft 248 kts 57°
2026-05-04 21:11 39.14757 1.53485 8270 ft 248 kts 88°
2026-05-04 21:11 39.14489 1.55634 7954 ft 242 kts 118°
2026-05-04 21:11 39.13513 1.57338 7660 ft 234 kts 146°
2026-05-04 21:12 39.12159 1.58456 7336 ft 232 kts 154°
2026-05-04 21:12 39.10751 1.59473 7037 ft 232 kts 155°
2026-05-04 21:12 39.09340 1.60464 6777 ft 230 kts 156°
2026-05-04 21:12 39.07950 1.61481 6509 ft 231 kts 146°
2026-05-04 21:13 39.06994 1.63132 6235 ft 236 kts 109°
2026-05-04 21:13 39.06939 1.65225 5935 ft 237 kts 72°
2026-05-04 21:13 39.07801 1.66971 5608 ft 232 kts 37°
2026-05-04 21:13 39.09080 1.68240 5267 ft 234 kts 40°
2026-05-04 21:14 39.10083 1.69896 4991 ft 236 kts 59°
2026-05-04 21:14 39.10878 1.71737 4724 ft 235 kts 60°
2026-05-04 21:14 39.11653 1.73588 4464 ft 233 kts 61°
2026-05-04 21:14 39.12144 1.75545 4204 ft 231 kts 90°
2026-05-04 21:15 39.11795 1.77509 3921 ft 225 kts 123°
2026-05-04 21:15 39.10767 1.78979 3621 ft 220 kts 148°
2026-05-04 21:15 39.09454 1.79903 3342 ft 213 kts 167°
2026-05-04 21:15 39.08032 1.80260 3057 ft 205 kts 184°
2026-05-04 21:16 39.06638 1.80070 2787 ft 198 kts 200°
2026-05-04 21:16 39.05403 1.79414 2565 ft 191 kts 215°
2026-05-04 21:16 39.04377 1.78377 2341 ft 185 kts 229°
2026-05-04 21:16 39.03632 1.77081 2207 ft 177 kts 242°
2026-05-04 21:17 39.03073 1.75714 2108 ft 171 kts 242°
2026-05-04 21:17 39.02520 1.74363 2031 ft 170 kts 243°
2026-05-04 21:17 39.01972 1.73020 2022 ft 170 kts 243°
2026-05-04 21:17 39.01427 1.71688 2015 ft 167 kts 243°
2026-05-04 21:18 39.00888 1.70373 2018 ft 166 kts 242°
2026-05-04 21:18 39.00349 1.69055 2013 ft 166 kts 242°
2026-05-04 21:18 38.99810 1.67739 2013 ft 168 kts 243°
2026-05-04 21:18 38.99267 1.66415 2024 ft 169 kts 243°
2026-05-04 21:19 38.98720 1.65080 2023 ft 168 kts 243°
2026-05-04 21:19 38.98176 1.63753 2010 ft 168 kts 242°
2026-05-04 21:19 38.97633 1.62430 2010 ft 168 kts 243°
2026-05-04 21:19 38.97088 1.61101 2012 ft 169 kts 242°
2026-05-04 21:20 38.96540 1.59768 2020 ft 169 kts 243°
2026-05-04 21:20 38.95990 1.58427 2021 ft 169 kts 243°
2026-05-04 21:20 38.95450 1.57116 2010 ft 167 kts 243°
2026-05-04 21:20 38.94900 1.55777 2009 ft 167 kts 243°
2026-05-04 21:21 38.94357 1.54456 2006 ft 169 kts 242°
2026-05-04 21:21 38.93803 1.53110 2009 ft 171 kts 242°
2026-05-04 21:21 38.93253 1.51773 2033 ft 164 kts 242°
2026-05-04 21:21 38.92746 1.50543 1974 ft 150 kts 242°
2026-05-04 21:22 38.92274 1.49398 1835 ft 144 kts 240°
2026-05-04 21:22 38.91402 1.47281 1511 ft 135 kts 239°
2026-05-04 21:22 38.90966 1.46226 1335 ft 133 kts 241°
2026-05-04 21:23 38.90535 1.45182 1155 ft 131 kts 241°
2026-05-04 21:23 38.90105 1.44121 1010 ft 134 kts 240°
2026-05-04 21:23 38.89693 1.43085 941 ft 131 kts 239°
2026-05-04 21:23 38.89260 1.42056 713 ft 130 kts 239°
2026-05-04 21:24 38.88835 1.41030 480 ft 129 kts 238°
2026-05-04 21:24 38.88398 1.40025 273 ft 130 kts 240°
2026-05-04 21:24 38.87981 1.39008 107 ft 129 kts 241°
2026-05-04 21:24 38.87587 1.38023 32 ft 116 kts 239°
2026-05-04 21:25 38.87254 1.37234 11 ft 84 kts 243°
2026-05-04 21:25 38.87030 1.36692 8 ft 51 kts 243°
2026-05-04 21:25 38.86906 1.36392 5 ft 22 kts 243°
2026-05-04 21:25 38.86937 1.36246 7 ft 15 kts 332°
2026-05-04 21:26 38.87029 1.36242 9 ft 15 kts 50°
2026-05-04 21:26 38.87083 1.36368 8 ft 17 kts 61°
2026-05-04 21:26 38.87143 1.36511 8 ft 19 kts 62°
2026-05-04 21:26 38.87208 1.36674 9 ft 22 kts 63°
2026-05-04 21:27 38.87280 1.36842 9 ft 21 kts 47°
2026-05-04 21:27 38.87387 1.36800 9 ft 12 kts 340°
2026-05-04 21:27 38.87450 1.36740 8 ft 10 kts 321°
2026-05-04 21:27 38.87496 1.36738 8 ft 7 kts 17°
2026-05-04 21:28 38.87504 1.36741 8 ft 0 kts 18°
2026-05-04 21:33 38.87485 1.36733 10 ft 0 kts 17°